Flag for U.S.A. Weather past 2 weeks in Clarksville, Tennessee, U.S.A.

Now
78 °F

Clear.


Feels Like: 81 °F
Forecast: 76 / 95 °F
Wind: 5 mph from Southwest

Location: Outlaw Field

Current Time: Aug 21, 2014 at 11:44:07 PM

Latest Report: Aug 21, 2014 at 10:52 PM


Visibility: 10 mi

Pressure: 30.03 "Hg

Humidity: 82%

Dew point: 72 °F

Location of ClarksvilleLocation

Historic Weather in Clarksville — Graph

°F

Clarksville temperature yesterday

Maximum temperature yesterday: 94 °F (at 12:52 PM)
Minimum temperature yesterday: 71 °F (at 10:52 PM)
Average temperature yesterday: 79 °F

Past Weeks' High & Low Weather Summary

 TemperatureHumidityPressure
High94 °F (Aug 20, 12:52 PM)97% (Aug 8, 6:01 AM)30.10 "Hg (Aug 8, 6:01 AM)
Low57 °F (Aug 13, 4:52 AM)31% (Aug 14, 3:52 PM)29.80 "Hg (Aug 18, 4:52 PM)
Average77 °F74%29.95 "Hg
* Reported Aug 6 10:52 PM — Aug 21 10:52 PM, Clarksville, Weather by CustomWeather, © 2014

Note: Actual official high and low records may vary slightly from our data, if they occured in-between our weather recording intervals... More about our weather records

Advertising

Clarksville weather history for previous 24 hours

 ConditionsComfort  
Time TempWeatherWind HumidityBarometerVisibility
10:52 PM
Aug 21
78 °FClear.5 mph82%30.03 "Hg10 mi
9:52 PM80 °FClear.5 mph76%30.03 "Hg10 mi
8:52 PM82 °FClear.5 mph72%30.01 "Hg10 mi
7:52 PM82 °FClear.5 mph70%30.00 "Hg10 mi
6:52 PM88 °FSunny.8 mph57%30.00 "Hg10 mi
5:52 PM90 °FSunny.13 mph54%30.01 "Hg10 mi
4:52 PM90 °FSunny.12 mph54%30.01 "Hg10 mi
3:52 PM91 °FSunny.12 mph56%30.02 "Hg10 mi
2:52 PM92 °FSunny.7 mph52%30.03 "Hg10 mi
1:52 PM92 °FSunny.7 mph51%30.06 "Hg10 mi
12:52 PM91 °FPassing clouds.8 mph52%30.06 "Hg10 mi
11:52 AM88 °FPassing clouds.10 mph59%30.09 "Hg10 mi
10:52 AM87 °FSunny.15 mph63%30.10 "Hg10 mi
9:52 AM84 °FSunny.7 mph70%30.09 "Hg10 mi
8:52 AM79 °FSunny.6 mph82%30.08 "Hg10 mi
7:52 AM74 °FSunny.6 mph91%30.07 "Hg10 mi
6:52 AM71 °FSunny.3 mph93%30.07 "Hg9 mi
5:52 AM70 °FClear.No wind93%30.05 "Hg8 mi
4:52 AM69 °FFog.No wind96%30.06 "Hg6 mi
3:52 AM70 °FClear.5 mph97%30.03 "Hg10 mi
2:52 AM70 °FClear.No wind97%30.03 "Hg7 mi
1:52 AM71 °FClear.5 mph93%30.03 "Hg10 mi
12:52 AM71 °FClear.No wind93%30.05 "Hg10 mi
11:52 PM
Aug 20
71 °FClear.3 mph96%30.04 "Hg9 mi
Weather by CustomWeather, © 2014

See weather overviewHow to use our weather pages